CAPE
0 0 0 0 0 0 0 0 0 0 0 0 0 0 0 0 0 0 0 0 0 0 0 0 0 0 0 0 0 0 0 0 0 0 0 0 0 20 139 694 1125 968 873 1342 1897
0 0 0 0 0 0 0 0 0 0 0 0 0 0 0 0 0 0 0 0 0 0 0 0 0 0 0 0 0 0 0 0 0 0 0 0 0 16 89 263 994 932 1139 1819 1807
0 0 0 0 0 0 0 0 0 0 0 0 0 0 0 0 0 0 0 0 0 0 0 0 0 0 0 0 0 0 0 0 0 0 0 0 0 10 21 171 868 884 1248 1882 1828
0 0 0 0 0 0 0 0 0 0 0 0 0 0 0 0 0 0 0 0 0 0 0 0 0 0 0 0 0 0 0 0 0 0 0 0 0 1 76 137 394 1086 1551 1897 1781
0 0 0 0 0 0 0 0 0 0 0 0 0 0 0 0 0 0 0 0 0 0 0 0 0 0 0 0 0 0 0 0 0 0 0 0 0 15 29 123 342 1043 1625 1760 1829
0 0 0 0 0 0 0 0 0 0 0 0 0 0 0 0 0 0 0 0 0 0 0 0 0 0 0 0 0 0 0 0 0 0 0 0 0 0 53 51 201 891 1168 1604 1877
0 0 0 0 0 0 0 0 0 0 0 0 0 0 0 0 0 0 0 0 0 0 0 0 0 0 0 0 0 0 0 0 0 0 0 0 0 0 1 59 341 396 842 1627 1809
0 0 0 0 0 0 0 0 0 0 0 0 0 0 0 0 0 0 0 0 0 0 0 0 0 0 0 0 0 0 0 0 0 0 0 0 0 0 0 113 470 625 1095 1682 1394
0 0 0 0 0 0 0 0 0 0 0 0 0 0 0 0 0 0 0 0 0 0 0 0 0 0 0 0 0 0 0 0 0 0 0 0 0 0 0 0 354 1193 1464 1762 892
0 0 0 0 0 0 0 0 0 0 0 0 0 0 0 0 0 0 0 0 0 0 0 0 0 0 0 0 0 0 0 0 0 0 0 0 0 0 0 25 92 337 1350 936 668
0 0 0 0 0 0 0 0 0 0 0 0 0 0 0 0 0 0 0 0 0 0 0 0 0 0 0 0 0 0 0 0 0 0 0 0 0 0 0 0 0 119 462 544 558
0 0 0 0 0 0 0 0 0 0 0 0 0 0 0 0 0 0 0 0 0 0 0 0 0 0 0 0 0 0 0 0 0 0 0 0 0 0 0 0 0 0 49 133 151
0 0 0 0 0 0 0 0 0 0 0 0 0 0 0 0 0 0 0 0 0 0 0 0 0 0 0 0 0 0 0 0 0 0 0 0 0 0 0 0 31 9 3 90 116
0 0 0 0 0 0 0 0 0 0 0 0 0 0 0 0 0 0 0 0 0 0 0 0 0 0 0 0 0 0 0 0 0 0 0 0 0 0 0 0 62 132 130 122 72
0 0 0 0 0 0 0 0 0 0 0 0 0 0 0 0 0 0 0 0 0 0 0 0 0 0 0 0 0 0 0 0 0 0 0 0 0 0 0 0 22 189 217 169 133
0 0 0 0 0 0 0 0 0 0 0 0 0 0 0 0 0 0 0 0 0 0 0 0 0 0 0 0 0 0 0 0 0 0 0 0 0 0 0 0 6 204 209 159 114
0 0 0 0 0 0 0 0 0 0 0 0 0 0 0 0 0 0 0 0 0 0 0 0 0 0 0 0 0 0 0 0 0 0 0 0 0 0 0 0 119 180 61 0 1
0 0 0 0 0 0 0 0 0 0 0 0 0 0 0 0 0 0 0 0 0 0 0 0 0 0 0 0 0 0 0 0 0 0 0 0 0 0 0 160 200 1 0 1 1
0 0 0 0 0 0 0 0 0 0 0 0 0 0 0 0 0 0 0 0 0 0 0 0 0 0 0 0 0 0 0 0 0 0 0 0 0 0 16 119 0 0 0 0 0
0 0 0 0 0 0 0 0 0 0 0 0 0 0 0 0 0 0 0 0 0 0 0 0 0 0 0 0 0 0 0 0 0 0 0 0 0 0 0 0 0 0 0 0 0
0 0 0 0 0 0 0 0 0 0 0 0 0 0 0 0 0 0 0 0 0 0 0 0 0 0 0 0 0 0 0 0 0 0 0 0 0 0 0 0 0 0 0 0 0
0 0 0 0 0 0 0 0 0 0 0 0 0 0 0 0 0 0 0 0 0 0 0 0 0 0 0 0 0 0 0 0 0 0 0 0 0 0 0 0 0 0 0 0 0
0 0 0 0 0 0 0 0 0 0 0 0 0 0 0 0 0 0 0 0 0 0 0 0 0 0 0 0 0 0 0 0 0 0 0 0 0 0 0 0 0 0 0 0 0
0 0 0 0 0 0 0 0 0 0 0 0 0 0 0 0 0 0 0 0 0 0 0 0 0 0 0 0 0 0 0 0 0 0 0 0 0 0 0 0 0 0 0 0 0
0 0 0 0 0 0 0 0 0 0 0 0 0 0 0 0 0 0 0 0 0 0 0 0 0 0 0 0 0 0 0 0 0 0 0 0 0 0 0 0 0 0 0 0 0
0 0 0 0 0 0 0 0 0 0 0 0 0 0 0 0 0 0 0 0 0 0 0 0 1 0 0 0 0 0 0 0 0 0 0 0 0 0 0 0 0 0 0 1 0
0 0 0 0 0 0 0 0 0 0 0 0 0 0 0 0 0 0 0 0 0 0 0 0 0 0 0 0 0 0 0 0 0 0 0 0 0 0 0 0 0 0 1 0 0
CIN
-0 -0 -0 -0 -0 -0 -0 -0 -0 -0 -0 -0 -0 -0 -0 -0 -0 -0 -0 -0 -0 -0 -0 -0 -0 -0 -0 -0 -0 -0 -0 -0 -0 -0 -0 -0 -0 -297 -233 -113 -98 -109 -122 -112 -138
-0 -0 -0 -0 -0 -0 -0 -0 -0 -0 -0 -0 -0 -0 -0 -0 -0 -0 -0 -0 -0 -0 -0 -0 -0 -0 -0 -0 -0 -0 -0 -0 -0 -0 -0 -0 -0 -158 -150 -145 -114 -141 -163 -143 -158
-0 -0 -0 -0 -0 -0 -0 -0 -0 -0 -0 -0 -0 -0 -0 -0 -0 -0 -0 -0 -0 -0 -0 -0 -0 -0 -0 -0 -0 -0 -0 -0 -0 -0 -0 -0 -0 -175 -97 -95 -73 -81 -156 -160 -157
-0 -0 -0 -0 -0 -0 -0 -0 -0 -0 -0 -0 -0 -0 -0 -0 -0 -0 -0 -0 -0 -0 -0 -0 -0 -0 -0 -0 -0 -0 -0 -0 -0 -0 -0 -0 -0 -10 -87 -34 -55 -89 -144 -163 -176
-0 -0 -0 -0 -0 -0 -0 -0 -0 -0 -0 -0 -0 -0 -0 -0 -0 -0 -0 -0 -0 -0 -0 -0 -0 -0 -0 -0 -0 -0 -0 -0 -0 -0 -0 -0 -0 -79 -81 -105 -108 -110 -172 -164 -164
-0 -0 -0 -0 -0 -0 -0 -0 -0 -0 -0 -0 -0 -0 -0 -0 -0 -0 -0 -0 -0 -0 -0 -0 -0 -0 -0 -0 -0 -0 -0 -0 -0 -0 -0 -0 -0 -0 -72 -149 -128 -127 -141 -162 -153
-0 -0 -0 -0 -0 -0 -0 -0 -0 -0 -0 -0 -0 -0 -0 -0 -0 -0 -0 -0 -0 -0 -0 -0 -0 -0 -0 -0 -0 -0 -0 -0 -0 -0 -0 -0 -0 -0 -5 -180 -110 -115 -133 -147 -173
-0 -0 -0 -0 -0 -0 -0 -0 -0 -0 -0 -0 -0 -0 -0 -0 -0 -0 -0 -0 -0 -0 -0 -0 -0 -0 -0 -0 -0 -0 -0 -0 -0 -0 -0 -0 -0 -0 -0 -164 -122 -116 -135 -172 -182
-0 -0 -0 -0 -0 -0 -0 -0 -0 -0 -0 -0 -0 -0 -0 -0 -0 -0 -0 -0 -0 -0 -0 -0 -0 -0 -0 -0 -0 -0 -0 -0 -0 -0 -0 -0 -0 -0 -0 -0 -127 -109 -146 -150 -264
-0 -0 -0 -0 -0 -0 -0 -0 -0 -0 -0 -0 -0 -0 -0 -0 -0 -0 -0 -0 -0 -0 -0 -0 -0 -0 -0 -0 -0 -0 -0 -0 -0 -0 -0 -0 -0 -0 -0 -314 -303 -281 -170 -236 -328
-0 -0 -0 -0 -0 -0 -0 -0 -0 -0 -0 -0 -0 -0 -0 -0 -0 -0 -0 -0 -0 -0 -0 -0 -0 -0 -0 -0 -0 -0 -0 -0 -0 -0 -0 -0 -0 -0 -0 -0 -0 -280 -221 -265 -309
-0 -0 -0 -0 -0 -0 -0 -0 -0 -0 -0 -0 -0 -0 -0 -0 -0 -0 -0 -0 -0 -0 -0 -0 -0 -0 -0 -0 -0 -0 -0 -0 -0 -0 -0 -0 -0 -0 -0 -0 -0 -0 -220 -309 -445
-0 -0 -0 -0 -0 -0 -0 -0 -0 -0 -0 -0 -0 -0 -0 -0 -0 -0 -0 -0 -0 -0 -0 -0 -0 -0 -0 -0 -0 -0 -0 -0 -0 -0 -0 -0 -0 -0 -0 -0 -329 -212 -165 -443 -397
-0 -0 -0 -0 -0 -0 -0 -0 -0 -0 -0 -0 -0 -0 -0 -0 -0 -0 -0 -0 -0 -0 -0 -0 -0 -0 -0 -0 -0 -0 -0 -0 -0 -0 -0 -0 -0 -0 -0 -0 -286 -321 -355 -359 -380
-0 -0 -0 -0 -0 -0 -0 -0 -0 -0 -0 -0 -0 -0 -0 -0 -0 -0 -0 -0 -0 -0 -0 -0 -0 -0 -0 -0 -0 -0 -0 -0 -0 -0 -0 -0 -0 -0 -0 -0 -194 -274 -270 -270 -260
-0 -0 -0 -0 -0 -0 -0 -0 -0 -0 -0 -0 -0 -0 -0 -0 -0 -0 -0 -0 -0 -0 -0 -0 -0 -0 -0 -0 -0 -0 -0 -0 -0 -0 -0 -0 -0 -0 -0 -0 -168 -237 -220 -233 -234
-0 -0 -0 -0 -0 -0 -0 -0 -0 -0 -0 -0 -0 -0 -0 -0 -0 -0 -0 -0 -0 -0 -0 -0 -0 -0 -0 -0 -0 -0 -0 -0 -0 -0 -0 -0 -0 -0 -0 -0 -190 -211 -198 -0 -0
-0 -0 -0 -0 -0 -0 -0 -0 -0 -0 -0 -0 -0 -0 -0 -0 -0 -0 -0 -0 -0 -0 -0 -0 -0 -0 -0 -0 -0 -0 -0 -0 -0 -0 -0 -0 -0 -0 -0 -218 -211 -37 -0 -0 -0
-0 -0 -0 -0 -0 -0 -0 -0 -0 -0 -0 -0 -0 -0 -0 -0 -0 -0 -0 -0 -0 -0 -0 -0 -0 -0 -0 -0 -0 -0 -0 -0 -0 -0 -0 -0 -0 -0 -205 -175 -47 -0 -0 -0 -0
-0 -0 -0 -0 -0 -0 -0 -0 -0 -0 -0 -0 -0 -0 -0 -0 -0 -0 -0 -0 -0 -0 -0 -0 -0 -0 -0 -0 -0 -0 -0 -0 -0 -0 -0 -0 -0 -0 -0 -0 -0 -0 -0 -0 -0
-0 -0 -0 -0 -0 -0 -0 -0 -0 -0 -0 -0 -0 -0 -0 -0 -0 -0 -0 -0 -0 -0 -0 -0 -0 -0 -0 -0 -0 -0 -0 -0 -0 -0 -0 -0 -0 -0 -0 -0 -0 -0 -0 -0 -0
-0 -0 -0 -0 -0 -0 -0 -0 -0 -0 -0 -0 -0 -0 -0 -0 -0 -0 -0 -0 -0 -0 -0 -0 -0 -0 -0 -0 -0 -0 -0 -0 -0 -0 -0 -0 -0 -0 -0 -0 -0 -0 -0 -0 -0
-0 -0 -0 -0 -0 -0 -0 -0 -0 -0 -0 -0 -0 -0 -0 -0 -0 -0 -0 -0 -0 -0 -0 -0 -0 -0 -0 -0 -0 -0 -0 -0 -0 -0 -0 -0 -0 -0 -0 -0 -0 -0 -0 -0 -0
-0 -0 -0 -0 -0 -0 -0 -0 -0 -0 -0 -0 -0 -0 -0 -0 -0 -0 -0 -0 -0 -0 -0 -0 -0 -0 -0 -0 -0 -0 -0 -0 -0 -0 -0 -0 -0 -0 -0 -0 -0 -0 -0 -0 -0
-0 -0 -0 -0 -0 -0 -0 -0 -0 -0 -0 -0 -0 -0 -0 -0 -0 -0 -0 -0 -0 -0 -0 -0 -0 -0 -0 -0 -0 -0 -0 -0 -0 -0 -0 -0 -0 -0 -0 -0 -0 -0 -0 -0 -0
-0 -0 -0 -0 -0 -0 -0 -0 -0 -0 -0 -0 -0 -0 -0 -0 -0 -0 -0 -0 -0 -0 -0 -0 -0 -0 -0 -0 -0 -0 -0 -0 -0 -0 -0 -0 -0 -0 -0 -0 -0 -0 -0 -0 -0
-0 -0 -0 -0 -0 -0 -0 -0 -0 -0 -0 -0 -0 -0 -0 -0 -0 -0 -0 -0 -0 -0 -0 -0 -0 -0 -0 -0 -0 -0 -0 -0 -0 -0 -0 -0 -0 -0 -0 -0 -0 -0 -4 -0 -0
Wind_Speed
17 17 17 17 17 17 17 18 18 18 18 18 18 18 18 19 18 14 14 14 14 15 16 17 17 18 14 12 13 13 12 12 14 15 16 14 14 13 12 13 13 13 13 15 19
16 16 16 16 16 17 17 17 18 18 18 17 17 18 18 19 14 13 15 13 14 15 17 19 18 16 12 11 12 11 11 12 13 13 15 11 10 11 11 11 12 11 12 17 20
15 15 15 16 16 16 17 17 18 18 17 17 17 18 18 17 14 15 17 13 14 15 17 18 18 13 11 11 10 10 12 13 17 12 11 10 9 10 9 9 12 12 11 16 17
15 14 15 15 16 16 17 17 18 18 18 18 18 18 18 16 14 16 16 15 15 15 17 19 17 13 12 11 11 11 12 15 20 18 12 10 10 9 8 10 10 10 11 14 15
14 14 15 15 16 16 17 17 18 18 18 19 19 19 17 15 14 16 14 14 14 15 17 18 17 15 13 12 11 13 17 20 22 17 12 11 8 9 7 6 6 9 9 12 13
13 13 14 15 15 16 17 17 18 19 19 19 19 18 16 13 14 14 13 14 14 15 17 17 17 15 15 14 12 15 18 22 18 16 14 13 11 9 4 5 3 7 8 10 11
12 12 13 14 15 16 16 17 18 19 19 18 17 17 15 13 13 15 13 13 14 14 17 15 15 15 15 14 14 15 18 19 21 20 18 15 14 10 13 4 4 6 6 7 9
12 12 12 13 14 14 15 16 17 18 17 16 15 15 13 15 17 18 11 13 13 13 14 15 13 15 16 15 15 15 14 19 22 25 20 16 18 21 24 6 3 5 2 4 4
15 14 13 13 13 14 15 16 17 16 12 13 14 14 14 15 15 15 13 13 15 15 16 15 15 16 16 16 14 16 16 19 18 22 22 19 22 29 26 11 4 4 3 1 1
17 16 16 15 14 14 15 14 13 12 13 14 14 15 11 16 17 17 15 14 15 17 15 16 17 16 17 17 17 15 17 19 21 24 25 21 24 27 27 16 10 7 5 3 3
19 17 16 16 16 17 16 14 15 15 16 15 17 17 17 18 16 15 15 15 16 17 17 18 19 19 17 17 17 17 18 21 20 24 22 22 23 27 25 23 18 12 8 9 8
20 19 17 16 15 14 15 16 16 17 18 18 19 18 18 15 14 16 14 15 17 18 17 16 21 20 18 17 17 18 20 23 20 23 20 21 24 23 26 25 22 18 12 10 10
23 21 18 17 15 15 16 17 18 16 14 15 14 12 13 12 14 16 14 15 16 18 17 19 20 18 17 18 20 21 23 24 24 24 21 23 21 22 23 24 24 24 17 15 12
24 23 19 17 14 16 16 19 19 13 14 15 14 12 11 13 15 16 14 16 17 18 17 18 20 17 19 20 21 22 22 22 24 26 28 23 28 22 24 24 24 24 21 18 14
26 24 20 16 15 15 19 21 15 14 13 15 14 12 13 12 14 16 16 16 18 18 18 18 19 19 19 21 21 22 24 26 28 26 24 22 22 20 23 23 24 23 21 19 16
27 24 20 15 14 17 22 18 15 13 13 13 13 12 12 12 14 15 15 17 17 17 18 18 18 19 20 19 21 24 26 27 25 23 23 21 22 22 23 23 22 21 20 18 16
28 23 17 16 13 21 21 15 13 13 15 15 15 14 12 13 15 15 15 17 17 18 19 19 19 18 21 22 22 32 33 33 25 25 24 21 22 21 21 22 20 18 18 18 17
28 20 15 18 20 18 16 13 13 14 14 16 16 13 12 16 16 16 15 15 19 17 19 20 19 22 23 25 28 30 26 26 28 27 28 21 20 21 21 20 19 18 17 18 18
24 17 17 21 17 17 15 13 13 13 15 17 14 13 14 15 14 15 16 16 18 19 19 21 20 22 23 27 27 26 26 22 23 22 23 21 20 19 19 18 18 17 18 18 17
20 16 19 22 17 16 15 13 13 14 18 15 14 14 14 16 15 16 16 16 17 21 20 20 24 23 26 22 25 24 22 23 23 25 27 24 27 26 21 19 17 17 17 16 16
18 14 21 20 15 16 14 14 14 16 17 14 14 14 15 16 17 18 17 17 18 20 20 21 22 25 25 25 25 23 23 24 22 21 24 29 27 25 28 19 17 15 14 15 17
18 15 23 18 15 16 15 15 17 18 19 15 14 15 15 16 18 17 17 17 20 19 22 21 22 25 24 20 18 20 23 24 26 25 24 26 29 27 27 19 14 13 13 15 18
19 19 21 17 16 16 17 17 17 19 19 17 16 16 16 16 18 16 17 18 20 19 20 19 21 26 23 17 19 25 23 24 23 23 25 28 27 30 25 20 16 13 14 16 19
20 20 20 17 16 16 17 19 19 19 17 17 16 15 15 17 19 16 18 20 19 19 20 19 19 20 25 23 24 27 26 24 23 25 27 25 31 28 23 19 16 15 16 18 24
21 19 18 21 20 18 17 19 19 20 20 19 16 17 17 17 18 19 19 20 21 21 21 21 22 19 20 21 23 25 26 25 22 23 22 28 28 26 20 18 17 17 21 24 28
20 20 18 19 19 17 19 19 19 19 20 18 16 18 17 17 19 19 20 22 23 23 23 21 24 21 23 21 22 24 25 20 19 21 22 24 25 23 20 18 20 23 24 25 29
18 17 17 18 17 16 17 18 19 16 16 16 15 15 17 17 19 20 21 22 23 25 25 22 22 23 25 23 25 24 21 20 20 22 22 25 23 20 21 22 24 24 24 25 28
Wind_Direction
300 290 281 282 265 266 267 267 264 261 262 265 269 272 275 280 272 272 310 336 7 18 1 356 17 346 21 23 53 68 54 47 41 40 31 57 66 87 106 97 97 98 71 88 107
289 280 273 260 249 255 259 259 259 256 258 261 265 269 276 283 270 305 287 61 45 53 358 336 338 343 5 11 43 50 24 25 40 38 22 51 78 72 82 114 126 98 64 102 114
276 273 262 246 239 245 250 251 250 249 252 258 263 270 275 265 282 309 288 98 102 68 31 19 355 347 0 2 18 28 10 18 5 30 38 49 62 76 84 121 145 135 106 114 121
269 248 243 232 230 234 240 242 242 244 252 259 267 272 274 301 324 307 304 47 72 50 23 7 353 4 15 18 357 25 19 7 355 2 30 52 51 75 115 132 144 135 118 129 136
264 238 233 226 225 230 235 239 241 247 256 263 271 281 314 322 330 308 357 41 39 26 355 336 354 17 12 7 22 5 341 345 336 11 49 48 69 50 134 116 62 117 123 144 149
269 242 235 231 229 232 236 239 243 249 255 264 274 283 314 345 344 329 21 31 28 22 1 356 355 21 9 353 1 351 344 341 10 23 30 26 30 31 65 142 71 135 156 161 162
277 256 241 236 236 234 236 241 244 246 253 261 276 322 319 7 17 333 33 23 28 26 353 36 42 22 19 12 354 355 345 359 356 0 359 15 11 8 354 90 160 163 172 171 173
290 271 254 242 235 236 242 244 241 239 243 260 320 315 305 309 284 229 61 26 29 55 46 33 47 16 2 359 353 355 3 345 351 344 2 6 352 352 334 7 216 213 228 176 158
306 290 270 252 241 243 248 250 246 252 306 335 323 327 346 274 338 322 53 17 17 18 14 20 20 12 9 360 356 347 346 345 352 357 353 354 340 329 337 348 320 302 280 228 330
311 299 284 268 260 265 269 271 341 340 337 347 347 349 336 312 320 325 12 15 1 355 30 17 14 19 16 11 354 349 346 349 347 348 352 353 344 341 345 357 350 338 320 315 297
315 304 286 272 273 289 327 316 301 308 309 311 290 303 284 304 352 8 1 13 9 12 16 20 17 7 8 17 14 14 5 352 353 351 354 354 351 350 351 351 348 343 321 322 321
316 307 289 275 271 307 332 342 333 308 296 305 276 278 283 334 357 357 21 18 14 14 21 23 359 8 22 25 19 13 0 353 357 354 354 353 350 359 357 356 350 343 337 335 333
316 309 293 285 326 333 337 344 330 334 350 326 333 339 335 24 358 4 38 30 23 16 17 8 2 15 23 12 359 357 351 351 351 352 357 348 347 350 356 359 360 355 354 348 344
315 309 295 293 332 325 338 314 312 31 346 357 9 359 13 14 6 9 33 23 18 8 17 5 5 13 5 0 357 353 1 359 352 346 338 347 336 349 351 353 356 357 360 0 0
312 306 295 316 339 343 315 305 7 350 9 350 11 3 7 9 10 7 28 29 15 13 16 8 10 9 6 1 2 356 354 349 345 342 341 344 342 351 352 352 354 356 358 3 4
309 301 304 341 341 331 299 337 348 354 357 355 1 8 14 359 1 8 15 11 18 13 11 17 17 11 5 6 4 357 348 346 349 349 345 349 348 346 349 351 356 2 3 9 12
307 299 338 337 343 297 312 346 349 349 345 341 341 343 354 346 352 351 355 352 354 355 355 355 358 3 2 353 354 343 342 340 346 343 341 350 343 344 350 353 356 4 7 7 8
305 317 341 330 296 324 344 348 340 341 340 346 343 353 348 341 343 343 352 351 356 357 351 348 348 354 353 350 343 344 348 342 337 339 335 346 343 346 348 357 4 6 7 6 2
304 325 336 303 318 334 344 333 337 341 337 331 346 348 344 348 352 351 342 346 347 349 347 345 345 346 348 345 349 349 348 352 343 344 340 344 347 349 351 353 358 360 1 3 4
316 324 326 298 316 339 339 335 335 342 328 337 333 344 340 344 347 348 348 351 349 344 345 345 337 342 343 352 354 353 357 350 350 342 338 340 338 337 345 344 349 350 354 360 7
329 331 321 308 332 333 331 334 332 333 330 335 333 333 333 333 337 337 339 344 344 346 352 349 343 341 346 347 349 354 354 354 351 345 338 335 338 345 339 345 345 352 360 2 359
328 324 318 320 329 333 330 332 332 328 328 328 333 332 331 333 331 334 337 343 343 348 343 349 346 343 345 350 360 1 353 350 342 339 335 330 329 343 344 348 355 1 4 1 355
327 321 326 323 322 323 326 328 330 327 325 323 322 325 330 330 330 335 336 341 342 346 345 349 348 340 346 356 358 345 349 348 344 341 333 330 333 344 353 360 6 8 4 360 353
327 316 324 335 327 322 321 319 320 329 332 328 324 326 327 327 328 332 333 337 341 345 347 347 345 341 335 339 342 339 340 343 341 336 335 333 332 343 354 0 6 5 0 354 344
328 322 324 314 320 321 319 320 319 317 324 329 329 327 323 322 327 328 332 333 336 337 339 340 334 337 338 340 340 340 341 342 343 345 343 341 344 351 358 3 4 1 350 342 339
322 317 321 318 320 321 317 320 319 321 323 324 328 330 331 327 327 326 330 331 329 334 334 336 329 334 331 338 340 340 342 349 354 351 349 349 350 360 9 11 1 349 345 344 339
334 333 323 320 323 322 322 323 324 328 336 338 333 335 336 335 333 334 333 333 332 328 327 328 327 328 325 335 336 336 349 353 353 352 351 348 355 6 2 357 354 353 352 349 346